Time,TemperatureF,DewpointF,PressureIn,WindDirection,WindDirectionDegrees,WindSpeedMPH,WindSpeedGustMPH,Humidity,HourlyPrecipIn,Conditions,Clouds,dailyrainin,SoftwareType,DateUTC
2013-05-14 00:00:00,46.0,-99.9,29.71,North,-999,-999.0,-999.0,-999,-99.99,,,-99.99,,2013-05-13 23:00:00,
2013-05-14 00:34:00,46.0,-99.9,29.71,North,-999,-999.0,-999.0,-999,-99.99,,,-99.99,,2013-05-13 23:34:00,
2013-05-14 00:42:00,46.0,-99.9,29.71,North,-999,-999.0,-999.0,-999,-99.99,,,-99.99,,2013-05-13 23:42:00,
2013-05-14 00:54:00,46.0,-99.9,29.71,North,-999,-999.0,-999.0,-999,-99.99,,,-99.99,,2013-05-13 23:54:00,
2013-05-14 01:00:00,46.0,-99.9,29.69,North,-999,-999.0,-999.0,-999,-99.99,,,-99.99,,2013-05-14 00:00:00,
2013-05-14 01:42:00,46.0,-99.9,29.69,North,-999,-999.0,-999.0,-999,-99.99,,,-99.99,,2013-05-14 00:42:00,
2013-05-14 01:52:00,46.0,-99.9,29.69,North,-999,-999.0,-999.0,-999,-99.99,,,-99.99,,2013-05-14 00:52:00,
2013-05-14 02:00:00,46.0,-99.9,29.66,North,-999,-999.0,-999.0,-999,-99.99,,,-99.99,,2013-05-14 01:00:00,
2013-05-14 02:43:00,46.0,-99.9,29.66,North,-999,-999.0,-999.0,-999,-99.99,,,-99.99,,2013-05-14 01:43:00,
2013-05-14 02:53:00,46.0,-99.9,29.66,North,-999,-999.0,-999.0,-999,-99.99,,,-99.99,,2013-05-14 01:53:00,
2013-05-14 03:00:00,46.0,-99.9,29.65,North,-999,-999.0,-999.0,-999,-99.99,,,-99.99,,2013-05-14 02:00:00,
2013-05-14 03:42:00,46.0,-99.9,29.65,North,-999,-999.0,-999.0,-999,-99.99,,,-99.99,,2013-05-14 02:42:00,
2013-05-14 03:52:00,46.0,-99.9,29.65,North,-999,-999.0,-999.0,-999,-99.99,,,-99.99,,2013-05-14 02:52:00,
2013-05-14 04:00:00,46.0,-99.9,29.63,North,-999,-999.0,-999.0,-999,-99.99,,,-99.99,,2013-05-14 03:00:00,
2013-05-14 04:43:00,46.0,-99.9,29.63,North,-999,-999.0,-999.0,-999,-99.99,,,-99.99,,2013-05-14 03:43:00,
2013-05-14 04:53:00,46.0,-99.9,29.63,North,-999,-999.0,-999.0,-999,-99.99,,,-99.99,,2013-05-14 03:53:00,
2013-05-14 05:00:00,45.0,-99.9,29.63,North,-999,-999.0,-999.0,-999,-99.99,,,-99.99,,2013-05-14 04:00:00,
2013-05-14 05:43:00,45.0,-99.9,29.63,North,-999,-999.0,-999.0,-999,-99.99,,,-99.99,,2013-05-14 04:43:00,
2013-05-14 05:53:00,45.0,-99.9,29.63,North,-999,-999.0,-999.0,-999,-99.99,,,-99.99,,2013-05-14 04:53:00,
2013-05-14 06:00:00,45.0,-99.9,29.60,North,-999,-999.0,-999.0,-999,-99.99,,,-99.99,,2013-05-14 05:00:00,
2013-05-14 06:43:00,45.0,-99.9,29.60,North,-999,-999.0,-999.0,-999,-99.99,,,-99.99,,2013-05-14 05:43:00,
2013-05-14 06:53:00,45.0,-99.9,29.60,North,-999,-999.0,-999.0,-999,-99.99,,,-99.99,,2013-05-14 05:53:00,
2013-05-14 07:00:00,45.0,-99.9,29.59,North,-999,-999.0,-999.0,-999,-99.99,,,-99.99,,2013-05-14 06:00:00,
2013-05-14 07:43:00,45.0,-99.9,29.59,North,-999,-999.0,-999.0,-999,-99.99,,,-99.99,,2013-05-14 06:43:00,
2013-05-14 07:52:00,45.0,-99.9,29.59,North,-999,-999.0,-999.0,-999,-99.99,,,-99.99,,2013-05-14 06:52:00,
2013-05-14 08:00:00,46.0,-99.9,29.59,North,-999,-999.0,-999.0,-999,-99.99,,,-99.99,,2013-05-14 07:00:00,
2013-05-14 08:42:00,46.0,-99.9,29.59,North,-999,-999.0,-999.0,-999,-99.99,,,-99.99,,2013-05-14 07:42:00,
2013-05-14 08:52:00,46.0,-99.9,29.59,North,-999,-999.0,-999.0,-999,-99.99,,,-99.99,,2013-05-14 07:52:00,
2013-05-14 09:00:00,48.0,-99.9,29.59,North,-999,-999.0,-999.0,-999,-99.99,,,-99.99,,2013-05-14 08:00:00,
2013-05-14 09:42:00,48.0,-99.9,29.59,North,-999,-999.0,-999.0,-999,-99.99,,,-99.99,,2013-05-14 08:42:00,
2013-05-14 09:52:00,48.0,-99.9,29.59,North,-999,-999.0,-999.0,-999,-99.99,,,-99.99,,2013-05-14 08:52:00,
2013-05-14 10:00:00,48.0,-99.9,29.57,North,-999,-999.0,-999.0,-999,-99.99,,,-99.99,,2013-05-14 09:00:00,
2013-05-14 10:44:00,48.0,-99.9,29.57,North,-999,-999.0,-999.0,-999,-99.99,,,-99.99,,2013-05-14 09:44:00,
2013-05-14 10:55:00,48.0,-99.9,29.57,North,-999,-999.0,-999.0,-999,-99.99,,,-99.99,,2013-05-14 09:55:00,
2013-05-14 11:00:00,48.0,-99.9,29.56,North,-999,-999.0,-999.0,-999,-99.99,,,-99.99,,2013-05-14 10:00:00,
2013-05-14 11:43:00,48.0,-99.9,29.56,North,-999,-999.0,-999.0,-999,-99.99,,,-99.99,,2013-05-14 10:43:00,
2013-05-14 11:53:00,48.0,-99.9,29.56,North,-999,-999.0,-999.0,-999,-99.99,,,-99.99,,2013-05-14 10:53:00,
2013-05-14 12:00:00,48.0,-99.9,29.52,North,-999,-999.0,-999.0,-999,-99.99,,,-99.99,,2013-05-14 11:00:00,
2013-05-14 12:44:00,48.0,-99.9,29.52,North,-999,-999.0,-999.0,-999,-99.99,,,-99.99,,2013-05-14 11:44:00,
2013-05-14 12:53:00,48.0,-99.9,29.52,North,-999,-999.0,-999.0,-999,-99.99,,,-99.99,,2013-05-14 11:53:00,
2013-05-14 13:00:00,48.0,-99.9,29.50,North,-999,-999.0,-999.0,-999,-99.99,,,-99.99,,2013-05-14 12:00:00,
2013-05-14 13:42:00,48.0,-99.9,29.50,North,-999,-999.0,-999.0,-999,-99.99,,,-99.99,,2013-05-14 12:42:00,
2013-05-14 13:52:00,48.0,-99.9,29.50,North,-999,-999.0,-999.0,-999,-99.99,,,-99.99,,2013-05-14 12:52:00,
2013-05-14 14:00:00,47.0,-99.9,29.47,North,-999,-999.0,-999.0,-999,-99.99,,,-99.99,,2013-05-14 13:00:00,
2013-05-14 14:42:00,47.0,-99.9,29.47,North,-999,-999.0,-999.0,-999,-99.99,,,-99.99,,2013-05-14 13:42:00,
2013-05-14 14:52:00,47.0,-99.9,29.47,North,-999,-999.0,-999.0,-999,-99.99,,,-99.99,,2013-05-14 13:52:00,
2013-05-14 15:00:00,47.0,-99.9,29.44,North,-999,-999.0,-999.0,-999,-99.99,,,-99.99,,2013-05-14 14:00:00,
2013-05-14 15:42:00,47.0,-99.9,29.44,North,-999,-999.0,-999.0,-999,-99.99,,,-99.99,,2013-05-14 14:42:00,
2013-05-14 15:53:00,47.0,-99.9,29.44,North,-999,-999.0,-999.0,-999,-99.99,,,-99.99,,2013-05-14 14:53:00,
2013-05-14 16:00:00,47.0,-99.9,29.41,North,-999,-999.0,-999.0,-999,-99.99,,,-99.99,,2013-05-14 15:00:00,
2013-05-14 16:43:00,47.0,-99.9,29.41,North,-999,-999.0,-999.0,-999,-99.99,,,-99.99,,2013-05-14 15:43:00,
2013-05-14 16:53:00,47.0,-99.9,29.41,North,-999,-999.0,-999.0,-999,-99.99,,,-99.99,,2013-05-14 15:53:00,
2013-05-14 17:00:00,47.0,-99.9,29.37,North,-999,-999.0,-999.0,-999,-99.99,,,-99.99,,2013-05-14 16:00:00,
2013-05-14 17:44:00,47.0,-99.9,29.37,North,-999,-999.0,-999.0,-999,-99.99,,,-99.99,,2013-05-14 16:44:00,
2013-05-14 17:54:00,47.0,-99.9,29.37,North,-999,-999.0,-999.0,-999,-99.99,,,-99.99,,2013-05-14 16:54:00,
2013-05-14 18:00:00,50.0,-99.9,29.38,North,-999,-999.0,-999.0,-999,-99.99,,,-99.99,,2013-05-14 17:00:00,
2013-05-14 18:43:00,50.0,-99.9,29.38,North,-999,-999.0,-999.0,-999,-99.99,,,-99.99,,2013-05-14 17:43:00,
2013-05-14 18:53:00,50.0,-99.9,29.38,North,-999,-999.0,-999.0,-999,-99.99,,,-99.99,,2013-05-14 17:53:00,
2013-05-14 19:00:00,49.0,-99.9,29.37,North,-999,-999.0,-999.0,-999,-99.99,,,-99.99,,2013-05-14 18:00:00,
2013-05-14 19:42:00,49.0,-99.9,29.37,North,-999,-999.0,-999.0,-999,-99.99,,,-99.99,,2013-05-14 18:42:00,
2013-05-14 19:52:00,49.0,-99.9,29.37,North,-999,-999.0,-999.0,-999,-99.99,,,-99.99,,2013-05-14 18:52:00,
2013-05-14 20:00:00,50.0,-99.9,29.38,North,-999,-999.0,-999.0,-999,-99.99,,,-99.99,,2013-05-14 19:00:00,
2013-05-14 20:42:00,50.0,-99.9,29.38,North,-999,-999.0,-999.0,-999,-99.99,,,-99.99,,2013-05-14 19:42:00,
2013-05-14 20:53:00,50.0,-99.9,29.38,North,-999,-999.0,-999.0,-999,-99.99,,,-99.99,,2013-05-14 19:53:00,
2013-05-14 21:00:00,47.0,-99.9,29.40,North,-999,-999.0,-999.0,-999,-99.99,,,-99.99,,2013-05-14 20:00:00,
2013-05-14 21:33:00,47.0,-99.9,29.40,North,-999,-999.0,-999.0,-999,-99.99,,,-99.99,,2013-05-14 20:33:00,
2013-05-14 21:44:00,47.0,-99.9,29.40,North,-999,-999.0,-999.0,-999,-99.99,,,-99.99,,2013-05-14 20:44:00,
2013-05-14 21:52:00,47.0,-99.9,29.40,North,-999,-999.0,-999.0,-999,-99.99,,,-99.99,,2013-05-14 20:52:00,
2013-05-14 22:00:00,47.0,-99.9,29.40,North,-999,-999.0,-999.0,-999,-99.99,,,-99.99,,2013-05-14 21:00:00,
2013-05-14 22:43:00,47.0,-99.9,29.40,North,-999,-999.0,-999.0,-999,-99.99,,,-99.99,,2013-05-14 21:43:00,
2013-05-14 22:53:00,47.0,-99.9,29.40,North,-999,-999.0,-999.0,-999,-99.99,,,-99.99,,2013-05-14 21:53:00,
2013-05-14 23:00:00,46.0,-99.9,29.38,North,-999,-999.0,-999.0,-999,-99.99,,,-99.99,,2013-05-14 22:00:00,
2013-05-14 23:45:00,46.0,-99.9,29.38,North,-999,-999.0,-999.0,-999,-99.99,,,-99.99,,2013-05-14 22:45:00,
2013-05-14 23:55:00,46.0,-99.9,29.38,North,-999,-999.0,-999.0,-999,-99.99,,,-99.99,,2013-05-14 22:55:00,